Location: Brunsen
(51.8651°N, 9.8610°E)
Time: 20:52:40
(UTC+00:00)

CZ-2C R/B - Pass Details

Date: 11 August 2024
Orbit: 782 x 869 km, 98.3° (Epoch: 07 September)

Event Time Altitude Azimuth Distance (km) Brightness Sun altitude
Exits shadow 02:11:45 20° 225° (SW) 1,865 3.8 -13.9°
Maximum altitude 02:14:21 29° 267° (W) 1,516 3.7 -13.7°
Drops below altitude 10° 02:19:04 10° 327° (NNW) 2,457 5.3 -13.2°
Sets 02:21:44 0° 338° (NNW) 3,381 6.2 -12.9°
